Regional Weather Roundup
Issued by NWS Wakefield, VA

Home | Current Version | Previous Version | Text Only | Print | Product List | Glossary On
Versions: 1 2 3 4 5 6 7 8 9 10 11 12 13 14 15 16 17 18 19 20 21 22 23 24 25 26 27 28 29 30 31 32 33 34 35 36 37 38 39 40 41 42 43 44 45 46 47 48 49 50
000
ASUS41 KAKQ 041915
RWRAKQ

REGIONAL WEATHER ROUNDUP
NATIONAL WEATHER SERVICE WAKEFIELD VA
300 PM EDT TUE AUG 04 2015

Note: "fair" indicates few or no clouds below 12,000 feet with no
significant weather and/or obstructions to visibility. * = Denotes
station may not report precipitation (e.g., rain,snow,etc.),
thunder or fog.

VAZ042-051-052>054-056-042000-
NORTHERN VIRGINIA

CITY           SKY/WX    TMP DP  RH WIND       PRES   REMARKS
WASH NATIONAL  MOSUNNY   95  63  34 SW14G20   29.89F HX  96
DULLES         MOSUNNY   90  64  42 W10       29.90F
FORT BELVOIR   SUNNY     92  65  41 VRB6      29.90F
QUANTICO       MOSUNNY   94  63  35 W9G20     29.90F HX  95
FREDERICKSBRG* SUNNY     94  65  38 W8G18     29.89F HX  96
STAFFORD*      MOSUNNY   92  60  34 W8        29.95F
WARRENTON      MOSUNNY   93  69  45 S7        29.91F HX  97
CULPEPER*      SUNNY     89  67  48 SW8       29.92F
MANASSAS*      MOSUNNY   91  61  35 SW10      29.90F
LEESBURG*      PTSUNNY   91  68  46 W6        29.91F HX  95
WINCHESTER     SUNNY     90  63  40 W12G17    29.92F
FRONT ROYAL*   FAIR      90  64  43 SW3       29.91F
LURAY*         MOCLDY    90  64  43 S9        29.93F
$$

VAZ048-049-060>072-079>083-042000-
CENTRAL AND SOUTH CENTRAL VIRGINIA

CITY           SKY/WX    TMP DP  RH WIND       PRES   REMARKS
RICHMOND       MOSUNNY   94  71  47 SW10      29.91F HX 101
CHESTERFIELD*  MOCLDY    93  66  40 SW12      29.94F HX  96
PETERSBURG*    PTSUNNY   93  77  58 S6        29.94F HX 107
HANOVER        SUNNY     93  70  46 W12G18    29.92F HX  99
TAPPAHANNOCK*  SUNNY     92  66  43 CALM      29.92F
QUINTON*       FAIR      92  72  51 S8        29.91F HX 100
CHARLOTTSVILLE MOSUNNY   90  65  43 W9        29.93F
GORDONSVILLE*  FAIR      90  66  45 SW9G16    29.92F
ORANGE*        SUNNY     91  64  40 S10       29.94F
LOUISA*        MOSUNNY   93  66  40 W9        29.91F HX  96
BUMPASS*       FAIR      93  67  42 W9        29.91F HX  96
FARMVILLE*     MOSUNNY   95  66  37 SW12      29.91F HX  98
CREWE*         FAIR     N/A N/A N/A S9        29.94F
FORT PICKETT*  FAIR      93  69  44 SW7G20    29.94F HX  98
CHASE CITY*    FAIR      94  74  51 S7        29.95F HX 104
CLARKSVILLE*   FAIR      91  72  52 W6        29.95F HX  98
SOUTH HILL*    SUNNY     92  73  54 CALM      30.01F HX 100
LAWRENCEVILLE* MOCLDY    93  73  52 MISG      29.94F HX 102
EMPORIA*       PTSUNNY   91  70  49 SE7       29.95F HX  97
$$

VAZ088>098-042000-
SOUTHEAST VIRGINIA

CITY           SKY/WX    TMP DP  RH WIND       PRES   REMARKS
NORFOLK        MOSUNNY   93  70  46 SW21G26   29.93F HX  99
VIRGINIA BEACH PTSUNNY   92  72  51 S17G28    29.94F HX  99
NORFOLK NAVAL  PTSUNNY   92  72  51 S14       29.94F HX  99
WEST POINT*    MOSUNNY   94  69  43 SW8       29.93F HX  99
SALUDA*        MOCLDY    90  74  60 SW12      29.93S HX  99
NEWPORT NEWS   MOSUNNY   92  73  53 SW8G18    29.93F HX 100
LANGLEY AFB    MOSUNNY   91  73  55 SW17G24   29.92F HX 100
FORT EUSTIS    SUNNY     93  71  48 SW9       29.92S HX 100
WILLIAMSBURG*  SUNNY     97  75  49 SW13      29.95S HX 109
HR EXEC AP*    FAIR      91  73  55 SW15G23   29.96F HX 100
FRANKLIN*      SUNNY     91  72  53 S12G20    29.95F HX  98
WAKEFIELD      MOSUNNY   93  72  50 SW10      29.93F HX 101
$$

VAZ020-022-025-037-045-042000-
WEST CENTRAL AND SOUTHWEST VIRGINIA

CITY           SKY/WX    TMP DP  RH WIND       PRES   REMARKS
STAUNTON*      MOSUNNY   92  61  34 SW10G21   29.98F
WAYNESBORO*    FAIR      86  65  48 SW8G18    29.98F
HOT SPRINGS VA PTSUNNY   76  63  63 W10       30.12F
LYNCHBURG      SUNNY     90  66  45 VRB6      29.97F
DANVILLE       SUNNY     91  68  46 SW6       29.95F HX  95
SOUTH BOSTON*  FAIR      92  70  48 SW5       29.94F HX  97
MARTINSVILLE   MOSUNNY   95  60  31 W6        29.99F HX  95
ROANOKE        MOSUNNY   92  65  40 NW9       29.98F
BLACKSBURG     PTSUNNY   87  67  52 W7        30.07F
DUBLIN*          N/A     87  66  50 W6        30.06F
MARION*        CLOUDY    80  69  68 W10       30.11F
HILLSVILLE*    PTSUNNY   83  65  53 W7        30.08F
RICHLANDS*     FAIR      80  66  62 NW6       30.10F
WISE*          MOSUNNY   88  59  37 W8        30.11F
ABINGDON*      MOSUNNY   87  64  45 W8        30.07F
$$

MDZ021>025-VAZ099-100-042000-
SOUTHERN MARYLAND AND THE DELMARVA PENINSULA

CITY           SKY/WX    TMP DP  RH WIND       PRES   REMARKS
PATUXENT RIVER MOSUNNY   92  68  45 SW9       29.90F HX  96
BAY BRIDGE APT   N/A     88  61  40 SW6       29.90S
LEONARDTOWN    SUNNY     90  64  43 W12       29.92F
DOVER          SUNNY     90  70  51 W12       29.89S HX  95
GEORGETOWN     SUNNY     91  65  41 W12G17    29.91S
EASTON         MOSUNNY   91  72  52 W7        29.95S HX  98
CAMBRIDGE      SUNNY     91  68  46 W5        29.90F HX  95
SALISBURY      SUNNY     90  68  48 W17G23    29.91S
OCEAN CITY     SUNNY     94  67  41 W17G23    29.91S HX  97
WALLOPS ISLAND MOSUNNY   90  73  57 W15       29.93S HX  98
ACCOMACK*      MOSUNNY   90  86  89 SW13G22   29.94S HX 119
$$

NCZ012>017-030>032-042000-
NORTH CENTRAL AND EASTERN NORTH CAROLINA

CITY           SKY/WX    TMP DP  RH WIND       PRES   REMARKS
ROANOKE RAPIDS FAIR      91  72  52 S12       29.94F HX  98
RALEIGH        MOSUNNY   90  69  50 SE5       29.96F
ELIZABETH CITY PTSUNNY   83  73  72 SW18G24   29.98F
AHOSKIE*       SUNNY    N/A N/A N/A S10G23    29.96S
EDENTON*         N/A     86  73  65 S13       29.97F
CURRITUCK*     PTSUNNY   84  72  67 SW12G22   29.98F
KILL DEVIL HLS PTSUNNY   82  76  81 SW6       29.98F
MANTEO         PTSUNNY   82  75  80 SW9       30.00F
CAPE HATTERAS  CLOUDY    83  75  77 SW9       30.02S
TARBORO*         N/A     90  73  57 SW7       29.97F HX  97
GOLDSBORO      MOSUNNY   92  73  53 S8        29.95S HX 100
WASHINGTON     MOSUNNY   86  73  66 S8        29.98F
GREENVILLE     MOSUNNY   88  77  70 S7        29.99F HX 100
NEW BERN       PTSUNNY   87  72  60 S12G22    30.00F
WILMINGTON     CLOUDY    78  74  87 SE9       29.96F
$$

VAZ048-042000-
ELSEWHERE

CITY           SKY/WX    TMP DP  RH WIND       PRES   REMARKS
HARRISBURG PA  MOSUNNY   88  51  28 W13G21    29.89F
BALTIMORE      MOSUNNY   90  66  45 W10       29.89F
ANNAPOLIS      MOSUNNY   90  65  43 VRB7      29.89F
ANDREWS AFB    MOSUNNY   92  62  36 W12G18    29.90F
PHILADELPHIA   MOSUNNY   91  60  35 W17       29.88F
HENDERSON NC   MOSUNNY   89  66  45 SE3       29.96F
GREENSBORO     CLOUDY    93  64  38 W8        29.96F
ROCKY MOUNT    SUNNY     93  70  46 S14G20    29.96F HX  99
$$

VAZ100-042000-
MARINE

STATION/POSITION TIME  TEMP    WIND        PRES    WAVE   SWELL
                       AIR SEA DIR/SP/G            HT/PER HT/PER
                 (UTC) (F)     (DEG/KT/KT) (MB)    (FT/S) (FT/S)
BRANDYWINE LGT   1800   83 75  320/  7/ 10 1012.8R
CAPE MAY NJ      1800   83 77  260/  4/  7 1012.4R
LEWES DE         1800   87 73  290/ 15/ 19 1012.4S
15NM E FENWICK I 1850   80 79  190/ 14/ 17 1012.8S   5/ 7   3/ 7
OCEAN-CITY-INLET 1800   86 73  260/ 12/ 17 1012.0F
WACHAPREAGUE VA  1800   90 84  240/  7/ 12 1013.8F
GOOSES REEF MD   1900   88 84   CALM  /  4 1013.6F
COVE POINT MD    1800   87     260/ 11/ 14 1013.6F
SOLOMONS ISLAND  1800      83                N/A
BISHOPS HEAD MD  1800   85 86  240/  8/  9 1012.5F
PINEY POINT MD   1800          360/  4/  5   N/A
POTOMAC MD       1900   88 84  260/ 10/ 12 1011.5F   1/ 2
CAMBRIDGE MD     1800   86 84  290/  9/ 12 1012.1F
LEWISETTA VA     1800   88 85  260/ 11/ 14 1012.7F
RAPPAHANNOCK LGT 1800          200/ 14/ 15 1014.1F
STINGRAY PT      1900   88 84  230/ 12/ 14 1013.5S   1/ 2
YORK RVR RNG VA  1800   87     230/ 12/ 15 1013.2F
YORKTOWN VA      1800   89 84  210/ 14/ 20 1013.3F
JAMESTOWN VA     1900   89 86  230/  8/ 14   N/A
DOMINION TERM VA 1800   88     230/ 13/ 15 1013.7F
KIPTOPEKE VA     1800      82  250/  8/ 11   N/A
CHES BAY BRIDGE  1800   87 78  200/ 16/ 21 1013.4F
CAPE HENRY VA    1800   91     200/ 10/ 15   N/A
CHESAPEAKE LGHT  1800   82     200/ 16/ 17 1015.0F
WILLOUBY STN VA  1800   89     220/ 17/ 19 1014.8F
CAPE HENRY BUOY  1828      78                N/A     3/12   2/12
1ST LANDING BUOY 1900      81              1013.3F   2/ 3
CAPE CHARLES BUO 1826      75                N/A     3/13   2/13
OFFSHORE WE BUOY 1811      82                N/A     4/ 5   2/12
64NM E OF VA BCH 1850   82 81  210/ 21/ 25 1014.8F   5/ 5   2/11
DUCK PIER NC     1800   78 63  210/ 13/ 17 1015.6R
44100 DUCK FRF   1824      79                N/A     3/ 3
44056 DUCK FRF   1811      67                N/A     2/11
OREGON INLET NC  1800   82 82  190/ 12/ 18 1016.3F
HATTERAS NC      1800   82 79  220/  8/ 12 1016.1F
DIAMOND SHLS NC  1850   82 84  200/ 17/ 19 1016.6R   5/ 5   2/11
CAPE LOOKOUT NC  1900   81     180/ 19/ 21 1015.9F
$$


USA.gov is the U.S. government's official web portal to all federal, state and local government web resources and services.